Orbital Elements at Epoch 2459000.5 (2020-May-31.0) TDB
Reference: JPL 19 (heliocentric ecliptic J2000)
Element | Value | Uncertainty (1-sigma) | Units |
e | .07062934267240509 | 4.7929e-08 | |
a | 2.961506081698673 | 2.7852e-08 | au |
q | 2.752336853827965 | 1.3745e-07 | au |
i | 9.960355945180689 | 5.2837e-06 | deg |
node | 222.7325646138541 | 3.0477e-05 | deg |
peri | 227.017763863018 | 5.9679e-05 | deg |
M | 78.86970739486345 | 4.7694e-05 | deg |
tp | 2458592.673822328704 (2019-Apr-19.17382233) | 0.00024664 | TDB |
period | 1861.518557773023 5.10 | 2.626e-05 7.19e-08 | d yr |
n | .1933904975036489 | 2.7281e-09 | deg/d |
Q | 3.17067530956938 | 2.9819e-08 | au |
|
| | Orbit Determination Parameters
Additional Information
|